Worthington, MN

1:58 AM CDT on August 23, 2017 (GMT -0500)
Worthington Municipal

Weather History for KOTG - December, 2013

Change the Weather History Date:

Monday, December 16, 2013

  Actual Average Record
Temperature  
Mean Temperature 16 °F -  
Max Temperature 26 °F 25 °F 51 °F (2006)
Min Temperature 6 °F 11 °F -16 °F (1983)
Degree Days  
Heating Degree Days 49    
Moisture  
Dew Point 9 °F    
Average Humidity 74    
Maximum Humidity 79    
Minimum Humidity 67    
Precipitation  
Precipitation 0.00 in - - ()
Sea Level Pressure  
Sea Level Pressure 29.97 in    
Wind  
Wind Speed 12 mph (SW)    
Max Wind Speed 18 mph    
Max Gust Speed 20 mph    
Visibility 10 miles    
Events      
Averages and records for this station are not official NWS values.
T = Trace of Precipitation, MM = Missing Value Source: NWS Daily Summary

Daily Weather History Graph

Daily Weather History Graph

Search for Another Location

Airport or City:

Trip Planner

Search our weather history database for the weather conditions in past years. The results will help you decide how hot, cold, wet, or windy it might be!

Date:

Astronomy

Dec. 16, 2013 Rise Set
Actual Time 7:49 AM CST 4:46 PM CST
Civil Twilight 7:16 AM CST 5:19 PM CST
Nautical Twilight 6:40 AM CST 5:55 PM CST
Astronomical Twilight 6:05 AM CST 6:30 PM CST
Moon 4:39 PM CST (12/16) 6:57 AM CST (12/16)
Length of Visible Light 10h 02m
Length of Day
8h 56m
Full, 100% of the Moon is Illuminated
Dec 16
Full
Dec 17
Full
Dec 25
Last Quarter
Jan 1
New
Jan 7
First Quarter

Hourly Weather History & Observations

Time (CST) Temp. Windchill Dew Point Humidity Pressure Visibility Wind Dir Wind Speed Gust Speed Precip Events Conditions
12:15 AM 6.8 °F -7.8 °F -0.4 °F 72% 29.98 in 10.0 mi SE 10.4 mph - N/A   Overcast
12:35 AM 6.8 °F -6.9 °F -0.4 °F 72% 29.98 in 10.0 mi SE 9.2 mph - N/A   Overcast
12:55 AM 6.8 °F -8.6 °F -0.4 °F 72% 29.97 in 10.0 mi SE 11.5 mph - N/A   Overcast
1:15 AM 6.8 °F -7.8 °F -0.4 °F 72% 29.98 in 10.0 mi SE 10.4 mph - N/A   Overcast
1:35 AM 6.8 °F -7.8 °F 1.4 °F 79% 29.97 in 10.0 mi SE 10.4 mph - N/A   Overcast
1:55 AM 8.6 °F -3.7 °F 1.4 °F 73% 29.99 in 10.0 mi SE 8.1 mph - N/A   Overcast
2:15 AM 8.6 °F -5.5 °F 1.4 °F 73% 29.99 in 10.0 mi SE 10.4 mph - N/A   Overcast
2:35 AM 8.6 °F -4.7 °F 1.4 °F 73% 29.99 in 10.0 mi SE 9.2 mph - N/A   Overcast
2:55 AM 8.6 °F -4.7 °F 1.4 °F 73% 29.99 in 10.0 mi SE 9.2 mph - N/A   Overcast
3:15 AM 8.6 °F -5.5 °F 1.4 °F 73% 29.98 in 10.0 mi SE 10.4 mph - N/A   Overcast
3:35 AM 8.6 °F -5.5 °F 1.4 °F 73% 29.96 in 10.0 mi SE 10.4 mph - N/A   Overcast
3:55 AM 8.6 °F -4.7 °F 1.4 °F 73% 29.96 in 10.0 mi SSE 9.2 mph - N/A   Overcast
4:15 AM 8.6 °F -7.0 °F 1.4 °F 73% 29.93 in 10.0 mi South 12.7 mph - N/A   Overcast
4:35 AM 8.6 °F -6.3 °F 1.4 °F 73% 29.93 in 10.0 mi South 11.5 mph - N/A   Overcast
4:55 AM 8.6 °F -6.3 °F 1.4 °F 73% 29.92 in 10.0 mi South 11.5 mph - N/A   Overcast
5:15 AM 8.6 °F -6.3 °F 3.2 °F 79% 29.91 in 10.0 mi South 11.5 mph - N/A   Overcast
5:35 AM 10.4 °F -2.4 °F 3.2 °F 73% 29.91 in 10.0 mi South 9.2 mph - N/A   Overcast
5:55 AM 8.6 °F -4.7 °F 1.4 °F 73% 29.91 in 10.0 mi South 9.2 mph - N/A   Partly Cloudy
6:15 AM 8.6 °F -3.7 °F 1.4 °F 73% 29.92 in 10.0 mi South 8.1 mph - N/A   Clear
6:35 AM 8.6 °F -3.7 °F 1.4 °F 73% 29.92 in 10.0 mi South 8.1 mph - N/A   Clear
6:55 AM 8.6 °F -6.3 °F 1.4 °F 73% 29.90 in 10.0 mi South 11.5 mph - N/A   Clear
7:15 AM 8.6 °F -7.0 °F 1.4 °F 73% 29.90 in 10.0 mi South 12.7 mph - N/A   Clear
7:35 AM 8.6 °F -6.3 °F 1.4 °F 73% 29.89 in 10.0 mi South 11.5 mph - N/A   Partly Cloudy
7:55 AM 8.6 °F -8.3 °F 1.4 °F 73% 29.89 in 8.0 mi South 15.0 mph - N/A   Mostly Cloudy
8:15 AM 8.6 °F -7.7 °F 3.2 °F 79% 29.89 in 8.0 mi SSW 13.8 mph - N/A   Overcast
8:35 AM 10.4 °F -4.8 °F 3.2 °F 73% 29.89 in 10.0 mi SSW 12.7 mph - N/A   Mostly Cloudy
8:55 AM 10.4 °F -1.5 °F 3.2 °F 73% 29.90 in 10.0 mi SSW 8.1 mph - N/A   Mostly Cloudy
9:15 AM 10.4 °F -4.8 °F 5.0 °F 79% 29.91 in 10.0 mi SSW 12.7 mph - N/A   Scattered Clouds
9:35 AM 10.4 °F -6.0 °F 3.2 °F 73% 29.90 in 10.0 mi SSW 15.0 mph - N/A   Clear
9:55 AM 10.4 °F -7.2 °F 3.2 °F 73% 29.91 in 10.0 mi SW 17.3 mph - N/A   Clear
10:15 AM 12.2 °F -5.3 °F 3.2 °F 67% 29.90 in 10.0 mi SW 18.4 mph - N/A   Clear
10:35 AM 12.2 °F -1.8 °F 6.8 °F 79% 29.92 in 10.0 mi WSW 11.5 mph - N/A   Clear
10:55 AM 12.2 °F -1.8 °F 6.8 °F 79% 29.93 in 10.0 mi WSW 11.5 mph - N/A   Clear
11:15 AM 12.2 °F -3.1 °F 6.8 °F 79% 29.94 in 10.0 mi West 13.8 mph - N/A   Clear
11:35 AM 12.2 °F -2.5 °F 6.8 °F 79% 29.94 in 10.0 mi West 12.7 mph - N/A   Mostly Cloudy
11:55 AM 15.8 °F 0.9 °F 8.6 °F 73% 29.93 in 7.0 mi WNW 15.0 mph 19.6 mph N/A   Overcast
12:15 PM 15.8 °F 2.1 °F 8.6 °F 73% 29.94 in 5.0 mi WNW 12.7 mph - N/A   Overcast
12:35 PM 15.8 °F 1.4 °F 10.4 °F 79% 29.95 in 9.0 mi West 13.8 mph - N/A   Mostly Cloudy
12:55 PM 15.8 °F 2.7 °F 8.6 °F 73% 29.94 in 10.0 mi WNW 11.5 mph - N/A   Clear
1:15 PM 17.6 °F 5.0 °F 10.4 °F 73% 29.94 in 10.0 mi WNW 11.5 mph - N/A   Partly Cloudy
1:35 PM 19.4 °F 6.6 °F 12.2 °F 74% 29.94 in 10.0 mi WNW 12.7 mph - N/A   Clear
1:55 PM 21.2 °F 8.9 °F 12.2 °F 68% 29.95 in 10.0 mi WNW 12.7 mph - N/A   Clear
2:15 PM 23.0 °F 10.6 °F 15.8 °F 74% 29.96 in 10.0 mi WNW 13.8 mph 18.4 mph N/A   Clear
2:35 PM 23.0 °F 11.1 °F 15.8 °F 74% 29.97 in 10.0 mi WNW 12.7 mph - N/A   Clear
2:55 PM 23.0 °F 11.7 °F 15.8 °F 74% 29.98 in 10.0 mi WNW 11.5 mph - N/A   Clear
3:15 PM 24.8 °F 15.3 °F 15.8 °F 69% 29.97 in 10.0 mi West 9.2 mph - N/A   Clear
3:35 PM 24.8 °F 13.4 °F 15.8 °F 69% 29.98 in 10.0 mi West 12.7 mph - N/A   Clear
3:55 PM 21.2 °F 8.3 °F 14.0 °F 74% 29.99 in 10.0 mi West 13.8 mph - N/A   Clear
4:15 PM 21.2 °F 8.9 °F 12.2 °F 68% 30.01 in 10.0 mi West 12.7 mph - N/A   Clear
4:35 PM 19.4 °F 7.2 °F 12.2 °F 74% 30.01 in 10.0 mi West 11.5 mph - N/A   Clear
4:55 PM 21.2 °F 8.9 °F 14.0 °F 74% 30.01 in 10.0 mi West 12.7 mph - N/A   Clear
5:15 PM 19.4 °F 6.0 °F 12.2 °F 74% 30.01 in 10.0 mi West 13.8 mph - N/A   Clear
5:35 PM 17.6 °F 4.3 °F 10.4 °F 73% 30.02 in 10.0 mi WSW 12.7 mph - N/A   Clear
5:55 PM 19.4 °F 6.0 °F 12.2 °F 74% 30.02 in 10.0 mi West 13.8 mph - N/A   Partly Cloudy
6:15 PM 19.4 °F 7.2 °F 12.2 °F 74% 30.02 in 10.0 mi WSW 11.5 mph - N/A   Scattered Clouds
6:35 PM 19.4 °F 7.9 °F 12.2 °F 74% 30.02 in 10.0 mi WSW 10.4 mph - N/A   Mostly Cloudy
6:55 PM 23.0 °F 11.7 °F 15.8 °F 74% 30.02 in 10.0 mi WSW 11.5 mph - N/A   Overcast
7:15 PM 24.8 °F 12.9 °F 17.6 °F 74% 30.02 in 10.0 mi WSW 13.8 mph - N/A   Overcast
7:35 PM 24.8 °F 12.9 °F 17.6 °F 74% 30.02 in 10.0 mi WSW 13.8 mph - N/A   Overcast
7:55 PM 24.8 °F 12.9 °F 17.6 °F 74% 30.02 in 10.0 mi WSW 13.8 mph - N/A   Overcast
8:15 PM 24.8 °F 11.9 °F 17.6 °F 74% 30.02 in 10.0 mi WSW 16.1 mph - N/A   Mostly Cloudy
8:35 PM 24.8 °F 12.4 °F 17.6 °F 74% 30.03 in 10.0 mi WSW 15.0 mph - N/A   Scattered Clouds
8:55 PM 24.8 °F 11.1 °F 17.6 °F 74% 30.03 in 10.0 mi West 18.4 mph - N/A   Partly Cloudy
9:15 PM 24.8 °F 11.9 °F 17.6 °F 74% 30.03 in 10.0 mi WSW 16.1 mph - N/A   Partly Cloudy
9:35 PM 24.8 °F 12.9 °F 17.6 °F 74% 30.03 in 10.0 mi West 13.8 mph - N/A   Mostly Cloudy
9:55 PM 24.8 °F 11.1 °F 17.6 °F 74% 30.03 in 10.0 mi West 18.4 mph - N/A   Overcast
10:15 PM 26.6 °F 13.4 °F 19.4 °F 74% 30.03 in 10.0 mi West 18.4 mph - N/A   Overcast
10:35 PM 26.6 °F 15.2 °F 19.4 °F 74% 30.03 in 10.0 mi West 13.8 mph - N/A   Overcast
10:55 PM 24.8 °F 12.9 °F 17.6 °F 74% 30.03 in 10.0 mi West 13.8 mph - N/A   Scattered Clouds
11:15 PM 26.6 °F 14.7 °F 19.4 °F 74% 30.01 in 10.0 mi WSW 15.0 mph - N/A   Clear
11:55 PM 26.6 °F 14.3 °F 17.6 °F 69% 30.01 in 10.0 mi WSW 16.1 mph - N/A   Clear